N7CVZ Weather Reports


time (UTC)temp
C
wind
direction
speed
KPH
gust
KPH
rain 1hr
cm
rain 24hr
cm
rain mn
cm
humidity
%
barometer
mb
20260503195600 27 0.0 0.0 0.00 0.00 0.00 45 1010.6
20260503195059 27 0.0 0.0 0.00 0.00 0.00 49 1010.6
20260503194609 26 0.0 0.0 0.00 0.00 0.00 47 1010.6
20260503194057 27 0.0 0.0 0.00 0.00 0.00 47 1010.7
20260503193556 26 0.0 0.0 0.00 0.00 0.00 49 1010.7
20260503193108 26 0.0 0.0 0.00 0.00 0.00 50 1010.8
20260503192553 26 0.0 0.0 0.00 0.00 0.00 47 1010.8
20260503192052 26 0.0 0.0 0.00 0.00 0.00 48 1010.9
20260503191609 26 0.0 0.0 0.00 0.00 0.00 52 1011.0
20260503191051 25 0.0 0.0 0.00 0.00 0.00 53 1011.0
20260503190550 25 0.0 0.0 0.00 0.00 0.00 51 1011.1
20260503190048 25 0.0 0.0 0.00 0.00 0.00 51 1011.1
20260503185549 25 0.0 0.0 0.00 0.00 0.00 58 1011.2
20260503185046 25 0.0 0.0 0.00 0.00 0.00 52 1011.2
20260503184546 24 0.0 0.0 0.00 0.00 0.00 57 1011.2
20260503184048 24 0.0 0.0 0.00 0.00 0.00 55 1011.3
20260503183543 24 0.0 0.0 0.00 0.00 0.00 54 1011.4
20260503183041 24 0.0 0.0 0.00 0.00 0.00 54 1011.5
20260503182541 24 0.0 0.0 0.00 0.00 0.00 53 1011.5
20260503182043 23 0.0 0.0 0.00 0.00 0.00 54 1011.6
20260503181547 23 0.0 0.0 0.00 0.00 0.00 53 1011.5
20260503181038 24 0.0 0.0 0.00 0.00 0.00 55 1011.5
20260503180535 23 0.0 0.0 0.00 0.00 0.00 56 1011.7
20260503180038 23 0.0 0.0 0.00 0.00 0.00 55 1011.7
20260503175535 23 0.0 0.0 0.00 0.00 0.00 58 1011.7
20260503175032 23 0.0 0.0 0.00 0.00 0.00 56 1011.7
20260503174534 23 0.0 0.0 0.00 0.00 0.00 56 1011.9
20260503174028 22 0.0 0.0 0.00 0.00 0.00 57 1011.8
20260503173526 22 0.0 0.0 0.00 0.00 0.00 55 1011.9
20260503173025 22 0.0 0.0 0.00 0.00 0.00 54 1011.9
20260503172523 22 0.0 0.0 0.00 0.00 0.00 57 1011.9
20260503172022 22 0.0 0.0 0.00 0.00 0.00 59 1011.9
20260503171521 21 0.0 0.0 0.00 0.00 0.00 60 1012.0
20260503171019 21 0.0 0.0 0.00 0.00 0.00 60 1012.1
20260503170519 20 0.0 0.0 0.00 0.00 0.00 59 1012.1
20260503150546 16 0.0 0.0 0.00 0.00 0.00 71 1012.4
20260503131022 13 0.0 0.0 0.00 0.00 0.00 80 1012.0
20260503130522 13 0.0 0.0 0.00 0.00 0.00 80 1012.0
20260503110511 13 0.0 0.0 0.00 0.00 0.00 90 1012.4
20260503081554 12 0.0 0.0 0.00 0.00 0.00 95 1012.9
20260503081053 12 0.0 0.0 0.00 0.00 0.00 94 1012.9
20260503080553 12 0.0 0.0 0.00 0.00 0.00 94 1013.0
20260503080103 12 0.0 0.0 0.00 0.00 0.00 94 1012.9
20260503072550 13 0.0 0.0 0.00 0.00 0.00 95 1013.0
20260503072050 12 0.0 0.0 0.00 0.00 0.00 94 1013.1
20260503071605 13 0.0 0.0 0.00 0.00 0.00 94 1013.1
20260503071049 13 0.0 0.0 0.00 0.00 0.00 95 1013.2
20260503070548 13 0.0 0.0 0.00 0.00 0.00 95 1013.1
20260503055046 15 0.0 0.0 0.00 0.00 0.00 86 1013.3
20260503054605 15 0.0 0.0 0.00 0.00 0.00 85 1013.1
20260503054048 16 0.0 0.0 0.00 0.00 0.00 84 1012.9
20260503053544 16 0.0 0.0 0.00 0.00 0.00 84 1012.6
20260503053045 16 0.0 0.0 0.00 0.00 0.00 83 1012.6
20260503052544 16 0.0 0.0 0.00 0.00 0.00 83 1012.7
20260503052043 16 0.0 0.0 0.00 0.00 0.00 83 1012.7
20260503051544 16 0.0 0.0 0.00 0.00 0.00 85 1012.8
20260503051044 15 0.0 0.0 0.00 0.00 0.00 87 1013.0
20260503050544 15 0.0 0.0 0.00 0.00 0.00 88 1013.1
20260503050044 15 0.0 0.0 0.00 0.00 0.00 89 1013.2
20260503045547 15 0.0 0.0 0.00 0.00 0.00 90 1013.1
20260503045044 14 0.0 0.0 0.00 0.00 0.00 90 1013.2
20260503044546 15 0.0 0.0 0.00 0.00 0.00 88 1013.2
20260503044043 15 0.0 0.0 0.00 0.00 0.00 89 1013.2
20260503043542 14 0.0 0.0 0.00 0.00 0.00 90 1013.2
20260503043052 14 0.0 0.0 0.00 0.00 0.00 90 1013.3
20260503042542 15 0.0 0.0 0.00 0.00 0.00 89 1013.5
20260503042042 15 0.0 0.0 0.00 0.00 0.00 90 1013.5
20260503041543 15 0.0 0.0 0.00 0.00 0.00 90 1013.4
20260503041045 15 0.0 0.0 0.00 0.00 0.00 89 1013.2
20260503040543 15 0.0 0.0 0.00 0.00 0.00 90 1013.3
20260503040046 14 0.0 0.0 0.00 0.00 0.00 90 1013.3
20260503035542 14 0.0 0.0 0.00 0.00 0.00 90 1013.2
20260503035043 14 0.0 0.0 0.00 0.00 0.00 90 1013.1
20260503034546 14 0.0 0.0 0.00 0.00 0.00 89 1013.2
20260503034042 15 0.0 0.0 0.00 0.00 0.00 89 1013.1
20260503033540 15 0.0 0.0 0.00 0.00 0.00 88 1013.1
20260503033042 15 0.0 0.0 0.00 0.00 0.00 87 1013.1
20260503032541 16 0.0 0.0 0.00 0.00 0.00 86 1013.2
20260503032041 16 0.0 0.0 0.00 0.00 0.00 84 1013.1
20260503031541 16 0.0 0.0 0.00 0.00 0.00 84 1013.1
20260503031041 16 0.0 0.0 0.00 0.00 0.00 83 1013.1
20260503030541 17 0.0 0.0 0.00 0.00 0.00 82 1013.1
20260503030040 17 0.0 0.0 0.00 0.00 0.00 82 1013.0
20260503025540 17 0.0 0.0 0.00 0.00 0.00 81 1013.0
20260503025040 17 0.0 0.0 0.00 0.00 0.00 80 1012.9
20260503024540 17 0.0 0.0 0.00 0.00 0.00 80 1012.8
20260503024040 17 0.0 0.0 0.00 0.00 0.00 81 1012.8
20260503023540 17 0.0 0.0 0.00 0.00 0.00 81 1012.8
20260503023043 17 0.0 0.0 0.00 0.00 0.00 81 1012.7
20260503022539 17 0.0 0.0 0.00 0.00 0.00 82 1012.7
20260503022039 17 0.0 0.0 0.00 0.00 0.00 84 1012.7
20260503021541 17 0.0 0.0 0.00 0.00 0.00 84 1012.6
20260503021039 18 0.0 0.0 0.00 0.00 0.00 80 1012.4
20260503020540 17 0.0 0.0 0.00 0.00 0.00 82 1012.2
20260503020040 17 0.0 0.0 0.00 0.00 0.00 82 1012.2
20260503015541 18 0.0 0.0 0.00 0.00 0.00 82 1012.1
20260503015038 18 0.0 0.0 0.00 0.00 0.00 82 1012.1
20260503014538 18 0.0 0.0 0.00 0.00 0.00 81 1012.0
20260503014038 18 0.0 0.0 0.00 0.00 0.00 81 1011.9
20260503013538 18 0.0 0.0 0.00 0.00 0.00 81 1011.9
20260503013042 18 0.0 0.0 0.00 0.00 0.00 81 1011.9
20260503012537 18 0.0 0.0 0.00 0.00 0.00 80 1011.9
20260503012036 18 0.0 0.0 0.00 0.00 0.00 80 1011.9
20260503011537 18 0.0 0.0 0.00 0.00 0.00 81 1011.9
20260503011039 18 0.0 0.0 0.00 0.00 0.00 81 1011.9
20260503010539 18 0.0 0.0 0.00 0.00 0.00 83 1011.8
20260503010038 18 0.0 0.0 0.00 0.00 0.00 79 1011.9
20260503005536 18 0.0 0.0 0.00 0.00 0.00 80 1011.9
20260503005036 18 0.0 0.0 0.00 0.00 0.00 80 1011.9
20260503004537 18 0.0 0.0 0.00 0.00 0.00 81 1011.9
20260503004038 18 0.0 0.0 0.00 0.00 0.00 78 1011.9
20260503003535 18 0.0 0.0 0.00 0.00 0.00 77 1011.9
20260503003044 18 0.0 0.0 0.00 0.00 0.00 79 1011.9
20260503002535 19 0.0 0.0 0.00 0.00 0.00 80 1011.9
20260503002036 18 0.0 0.0 0.00 0.00 0.00 80 1011.9
20260503001541 18 0.0 0.0 0.00 0.00 0.00 79 1011.9
20260503001034 19 0.0 0.0 0.00 0.00 0.00 81 1011.9
20260503000533 19 0.0 0.0 0.00 0.00 0.00 81 1011.9
20260503000041 19 0.0 0.0 0.00 0.00 0.00 80 1012.0
20260502235533 19 0.0 0.0 0.00 0.00 0.00 78 1012.0
20260502235033 19 0.0 0.0 0.00 0.00 0.00 79 1012.0
20260502234546 19 0.0 0.0 0.00 0.00 0.00 78 1012.0
20260502234033 20 0.0 0.0 0.00 0.00 0.00 77 1012.0
20260502233632 20 0.0 0.0 0.00 0.00 0.00 77 1012.0
20260502233039 20 0.0 0.0 0.00 0.00 0.00 73 1012.1
20260502232530 20 0.0 0.0 0.00 0.00 0.00 74 1012.1
20260502232030 20 0.0 0.0 0.00 0.00 0.00 76 1012.2
20260502231529 20 0.0 0.0 0.00 0.00 0.00 77 1012.3
20260502231028 20 0.0 0.0 0.00 0.00 0.00 72 1012.3
20260502230528 20 0.0 0.0 0.00 0.00 0.00 76 1012.4
20260502230032 20 0.0 0.0 0.00 0.00 0.00 71 1012.4
20260502225526 20 0.0 0.0 0.00 0.00 0.00 75 1012.4
20260502225025 19 0.0 0.0 0.00 0.00 0.00 73 1012.5
20260502224525 20 0.0 0.0 0.00 0.00 0.00 75 1012.6
20260502224024 19 0.0 0.0 0.00 0.00 0.00 74 1012.7
20260502223523 18 0.0 0.0 0.00 0.00 0.00 72 1012.8
20260502223033 19 0.0 0.0 0.00 0.00 0.00 71 1012.9
20260502222521 19 0.0 0.0 0.00 0.00 0.00 79 1013.0
20260502222021 19 0.0 0.0 0.00 0.00 0.00 71 1013.1
20260502221519 20 0.0 0.0 0.00 0.00 0.00 75 1013.1
20260502221018 19 0.0 0.0 0.00 0.00 0.00 76 1013.2
20260502220518 18 0.0 0.0 0.00 0.00 0.00 76 1013.3
20260502220022 19 0.0 0.0 0.00 0.00 0.00 77 1013.4
20260502215518 18 0.0 0.0 0.00 0.00 0.00 74 1013.5
20260502215016 17 0.0 0.0 0.00 0.00 0.00 76 1013.5
20260502214515 18 0.0 0.0 0.00 0.00 0.00 76 1013.6
20260502214017 18 0.0 0.0 0.00 0.00 0.00 73 1013.7
20260502213513 18 0.0 0.0 0.00 0.00 0.00 76 1013.8
20260502213012 17 0.0 0.0 0.00 0.00 0.00 75 1013.8
20260502212512 17 0.0 0.0 0.00 0.00 0.00 78 1013.9
20260502212013 17 0.0 0.0 0.00 0.00 0.00 74 1013.9
20260502211512 17 0.0 0.0 0.00 0.00 0.00 79 1014.0
20260502211010 17 0.0 0.0 0.00 0.00 0.00 75 1014.1
20260502210508 17 0.0 0.0 0.00 0.00 0.00 79 1014.2
20260502210008 17 0.0 0.0 0.00 0.00 0.00 77 1014.3
20260502205507 16 0.0 0.0 0.00 0.00 0.00 80 1014.4
20260502205007 16 0.0 0.0 0.00 0.00 0.00 80 1014.5
20260502204506 17 0.0 0.0 0.00 0.00 0.00 80 1014.5
20260502204006 17 0.0 0.0 0.00 0.00 0.00 77 1014.5
20260502203508 17 0.0 0.0 0.00 0.00 0.00 81 1014.6
20260502203003 17 0.0 0.0 0.00 0.00 0.00 82 1014.6
20260502202504 17 0.0 0.0 0.00 0.00 0.00 80 1014.6
20260502202003 17 0.0 0.0 0.00 0.00 0.00 79 1014.8
20260502201502 17 0.0 0.0 0.00 0.00 0.00 82 1014.8
20260502201001 15 0.0 0.0 0.00 0.00 0.00 84 1014.9
20260502200502 15 0.0 0.0 0.00 0.00 0.00 83 1014.9
20260502200002 15 0.0 0.0 0.00 0.00 0.00 82 1014.9